Regional Weather Roundup
Issued by NWS

Home | Current Version | Previous Version | Text Only | Print | Product List | Glossary On
Versions: 1 2 3 4 5 6 7 8 9 10 11 12 13 14 15 16 17 18 19 20 21 22 23 24 25 26 27 28 29 30 31 32 33 34 35 36 37 38 39 40 41 42 43 44 45 46 47 48 49 50
787
ASUS42 KKEY 301910
RWRKEY

FLORIDA REGIONAL WEATHER ROUNDUP FOR THE FLORIDA KEYS
NATIONAL WEATHER SERVICE KEY WEST FLORIDA
300 PM EDT THU MAR 30 2017

...SOUTH FLORIDA AND THE KEYS...

CITY           SKY/WX    TMP DP  RH WIND       PRES   REMARKS
FORT MYERS     SUNNY     85  64  49 SW15      29.97S
SW REGIONAL AP MOSUNNY   85  62  46 W15G21    29.96F
NAPLES         MOSUNNY   83  64  52 SW22G28   29.96F
MIAMI          MOSUNNY   83  62  48 SE14G23   29.98F
WEST KENDALL   MOSUNNY   82  59  45 SE12G23   29.97F
HOMESTEAD      MOSUNNY   82  65  57 SE12G21   29.97F
MARATHON       SUNNY     83  66  56 SE12G18   29.96F
BOCA CHICA NAS CLOUDY    82  66  58 SE17      29.95F
KEY WEST INTL  MOSUNNY   81  67  62 SE15      29.96S

...INTERNATIONAL WEATHER...

CITY           SKY/WX    TMP DP  RH WIND       PRES   REMARKS
NASSAU BAHAMAS MOSUNNY   82  64  54 SE10G22   30.01F
CANCUN MEXICO  PTSUNNY   84  70  61 SE18      29.87F
COZUMEL MEXICO MOSUNNY   86  72  62 S15       29.86F HX  92

ADJACENT COASTAL WATERS...

STATION/POSITION TIME  SKY/WX   TEMP    WIND        PRES    WAVE
                                AIR SEA DIR/SP/G            HT/PER
                 (UTC)          (F)     (DEG/KT/KT) (MB)    (FT/S)
PULASKI SHOAL LI 1900            77     150/ 13/ 14 1014.5F
SAND KEY         1850            76     160/ 17/ 20 1014.7F
LONG KEY         1800            77 78  160/ 14/ 17 1015.2F
MOLASSES REEF    1900            76 79  150/ 15/ 17 1015.0F
FOWEY ROCKS      1900            76 77  140/ 14/ 14 1015.6F
Buoy 42097       1900                                 N/A     4/ 5

$$




USA.gov is the U.S. government's official web portal to all federal, state and local government web resources and services.